Location: Beddau
(51.5575°N, 3.3561°W)
Time: 14:01:03
(UTC+00:00)

HJ-1C - Pass Details

Date: 03 March 2021
Orbit: 428 x 441 km, 97.1° (Epoch: 11 April)

Event Time Altitude Azimuth Distance (km) Brightness Sun altitude
Rises 18:33:16 0° 149° (SSE) 2,418 6.8 -6.3°
Reaches altitude 10° 18:35:21 10° 142° (SE) 1,551 5.8 -6.7°
Maximum altitude 18:38:29 41° 71° (ENE) 652 3.8 -7.2°
Drops below altitude 10° 18:41:39 10° 360° (N) 1,557 6.1 -7.6°
Sets 18:43:44 0° 353° (N) 2,429 7.2 -8.0°
